When you browse on this site, cookies collect data to enhance your experience and personalize the content and advertising you see.
Visit our Privacy Policy to learn more. By continuing to use the site, you agree to this use of cookies and data.
  • In Germany
  • List of Countries
  • For 7 days
  • Water Temperature
  • Weather Map
  • Weather Widgets
  • user-avatar
    Login

    Hourly Weather Neuquén

    Today, 19 August, Monday

    Time Temperature Precipitation Wind Pressure Humidity
    00:00 +2°C° 0 mm 5 mps 744 mmHg 63%
    01:00 +2°C° 0 mm 5 mps 744 mmHg 60%
    02:00 +2°C° 0 mm 5 mps 743 mmHg 59%
    03:00 +2°C° 0 mm 5 mps 743 mmHg 57%
    04:00 +2°C° 0 mm 5 mps 742 mmHg 56%
    05:00 +2°C° 0 mm 5 mps 742 mmHg 59%
    06:00 +2°C° 0 mm 5 mps 742 mmHg 62%
    07:00 +2°C° 0 mm 6 mps 742 mmHg 65%
    08:00 +2°C° 0 mm 6 mps 742 mmHg 69%
    09:00 +2°C° 0 mm 6 mps 742 mmHg 73%
    10:00 +2°C° 0 mm 6 mps 742 mmHg 78%
    11:00 +3°C° 0 mm 5 mps 742 mmHg 72%
    12:00 +6°C° 0 mm 5 mps 741 mmHg 66%
    13:00 +7°C° 0 mm 5 mps 741 mmHg 60%
    14:00 +7°C° 0 mm 5 mps 741 mmHg 59%
    15:00 +7°C° 0 mm 5 mps 740 mmHg 58%
    16:00 +8°C° 0 mm 5 mps 740 mmHg 57%
    17:00 +7°C° 0 mm 5 mps 741 mmHg 60%
    18:00 +7°C° 0 mm 5 mps 741 mmHg 63%
    19:00 +7°C° 0 mm 5 mps 742 mmHg 66%
    20:00 +6°C° 0 mm 5 mps 742 mmHg 69%
    21:00 +6°C° 0 mm 4 mps 742 mmHg 73%
    22:00 +5°C° 0 mm 4 mps 742 mmHg 77%
    23:00 +5°C° 0 mm 4 mps 742 mmHg 79%

    Tomorrow, 20 August, Tuesday

    Time Temperature Precipitation Wind Pressure Humidity
    00:00 +4°C° 0 mm 4 mps 742 mmHg 81%
    01:00 +4°C° 0 mm 4 mps 742 mmHg 83%
    02:00 +3°C° 0 mm 4 mps 742 mmHg 83%
    03:00 +3°C° 0 mm 3 mps 741 mmHg 84%
    04:00 +3°C° 0 mm 3 mps 741 mmHg 84%
    05:00 +3°C° 0 mm 4 mps 742 mmHg 84%
    06:00 +3°C° 0 mm 4 mps 742 mmHg 83%
    07:00 +3°C° 0 mm 4 mps 742 mmHg 83%
    08:00 +5°C° 0 mm 4 mps 742 mmHg 76%
    09:00 +6°C° 0 mm 5 mps 742 mmHg 69%
    10:00 +7°C° 0 mm 5 mps 743 mmHg 62%
    11:00 +8°C° 0 mm 5 mps 742 mmHg 60%
    12:00 +8°C° 0 mm 5 mps 742 mmHg 57%
    13:00 +9°C° 0 mm 6 mps 741 mmHg 54%
    14:00 +8°C° 0.9 mm 5 mps 741 mmHg 63%
    15:00 +7°C° 0.9 mm 5 mps 740 mmHg 72%
    16:00 +7°C° 0.9 mm 5 mps 740 mmHg 80%
    17:00 +7°C° 0.9 mm 5 mps 740 mmHg 82%
    18:00 +7°C° 0.9 mm 5 mps 740 mmHg 83%
    19:00 +6°C° 0.9 mm 5 mps 740 mmHg 85%
    20:00 +7°C° 0.1 mm 5 mps 739 mmHg 85%
    21:00 +7°C° 0.1 mm 6 mps 739 mmHg 85%
    22:00 +7°C° 0.1 mm 6 mps 739 mmHg 85%
    23:00 +5°C° 0 mm 6 mps 738 mmHg 83%

    Day after tomorrow, 21 August, Wednesday

    Time Temperature Precipitation Wind Pressure Humidity
    00:00 +5°C° 0 mm 6 mps 738 mmHg 81%
    01:00 +6°C° 0 mm 5 mps 737 mmHg 79%
    02:00 +6°C° 0 mm 5 mps 737 mmHg 77%
    03:00 +6°C° 0 mm 4 mps 737 mmHg 75%
    04:00 +5°C° 0 mm 3 mps 736 mmHg 73%
    05:00 +5°C° 0 mm 3 mps 737 mmHg 73%
    06:00 +5°C° 0 mm 3 mps 737 mmHg 72%
    07:00 +6°C° 0 mm 2 mps 737 mmHg 72%
    08:00 +8°C° 0 mm 2 mps 737 mmHg 65%
    09:00 +9°C° 0 mm 2 mps 737 mmHg 59%
    10:00 +10°C° 0 mm 2 mps 737 mmHg 53%
    11:00 +12°C° 0 mm 1 mps 737 mmHg 50%
    12:00 +13°C° 0 mm 1 mps 737 mmHg 48%
    13:00 +14°C° 0 mm 1 mps 737 mmHg 46%
    14:00 +14°C° 0 mm 2 mps 737 mmHg 46%
    15:00 +14°C° 0 mm 2 mps 737 mmHg 45%
    16:00 +13°C° 0 mm 3 mps 737 mmHg 45%
    17:00 +13°C° 0 mm 3 mps 738 mmHg 49%
    18:00 +13°C° 0 mm 2 mps 738 mmHg 52%
    19:00 +12°C° 0 mm 2 mps 739 mmHg 55%
    20:00 +12°C° 0 mm 2 mps 739 mmHg 57%
    21:00 +11°C° 0 mm 1 mps 739 mmHg 60%
    22:00 +10°C° 0 mm 1 mps 739 mmHg 62%
    23:00 +10°C° 0 mm 1 mps 739 mmHg 63%

    22 August, Thursday

    Time Temperature Precipitation Wind Pressure Humidity
    00:00 +10°C° 0 mm 1 mps 739 mmHg 64%
    01:00 +9°C° 0 mm 1 mps 739 mmHg 65%
    02:00 +9°C° 0 mm 1 mps 739 mmHg 66%
    03:00 +9°C° 0 mm 1 mps 740 mmHg 68%
    04:00 +8°C° 0 mm 2 mps 740 mmHg 69%
    05:00 +8°C° 0 mm 2 mps 740 mmHg 69%
    06:00 +8°C° 0 mm 2 mps 740 mmHg 69%
    07:00 +8°C° 0 mm 2 mps 741 mmHg 70%
    08:00 +10°C° 0 mm 2 mps 741 mmHg 63%
    09:00 +12°C° 0 mm 3 mps 741 mmHg 56%
    10:00 +13°C° 0 mm 3 mps 742 mmHg 50%
    11:00 +14°C° 0 mm 3 mps 741 mmHg 46%
    12:00 +15°C° 0 mm 4 mps 741 mmHg 42%
    13:00 +17°C° 0 mm 4 mps 740 mmHg 39%
    14:00 +17°C° 0 mm 4 mps 740 mmHg 39%
    15:00 +18°C° 0 mm 4 mps 740 mmHg 39%
    16:00 +18°C° 0 mm 4 mps 740 mmHg 38%
    17:00 +17°C° 0 mm 3 mps 740 mmHg 42%
    18:00 +16°C° 0 mm 3 mps 740 mmHg 46%
    19:00 +15°C° 0 mm 2 mps 740 mmHg 49%
    20:00 +14°C° 0 mm 3 mps 739 mmHg 51%
    21:00 +13°C° 0 mm 4 mps 739 mmHg 52%
    22:00 +13°C° 0 mm 5 mps 739 mmHg 54%
    23:00 +13°C° 0 mm 5 mps 739 mmHg 56%

    23 August, Friday

    Time Temperature Precipitation Wind Pressure Humidity
    00:00 +13°C° 0 mm 6 mps 738 mmHg 58%
    01:00 +11°C° 0 mm 6 mps 738 mmHg 60%
    02:00 +11°C° 0 mm 6 mps 737 mmHg 63%
    03:00 +11°C° 0 mm 6 mps 737 mmHg 66%
    04:00 +10°C° 0 mm 6 mps 737 mmHg 68%
    05:00 +10°C° 0 mm 6 mps 736 mmHg 69%
    06:00 +10°C° 0 mm 6 mps 736 mmHg 69%
    07:00 +10°C° 0 mm 6 mps 736 mmHg 70%
    08:00 +11°C° 0 mm 7 mps 736 mmHg 64%
    09:00 +14°C° 0 mm 7 mps 736 mmHg 58%
    10:00 +15°C° 0 mm 8 mps 735 mmHg 53%
    11:00 +17°C° 0 mm 8 mps 735 mmHg 47%
    12:00 +18°C° 0 mm 7 mps 734 mmHg 42%
    13:00 +20°C° 0 mm 7 mps 733 mmHg 37%
    14:00 +20°C° 0 mm 6 mps 733 mmHg 38%
    15:00 +20°C° 0 mm 5 mps 732 mmHg 39%
    16:00 +19°C° 0 mm 4 mps 732 mmHg 41%
    17:00 +18°C° 0 mm 4 mps 732 mmHg 46%
    18:00 +17°C° 0 mm 4 mps 732 mmHg 51%
    19:00 +14°C° 0 mm 4 mps 732 mmHg 55%
    20:00 +14°C° 0 mm 4 mps 732 mmHg 57%
    21:00 +13°C° 0 mm 3 mps 732 mmHg 58%
    22:00 +14°C° 0 mm 2 mps 732 mmHg 59%
    23:00 +13°C° 0 mm 2 mps 732 mmHg 61%

    24 August, Saturday

    Time Temperature Precipitation Wind Pressure Humidity
    00:00 +12°C° 0 mm 1 mps 732 mmHg 64%
    01:00 +12°C° 0 mm 1 mps 732 mmHg 66%
    02:00 +12°C° 0 mm 1 mps 732 mmHg 65%
    03:00 +12°C° 0 mm 1 mps 732 mmHg 65%
    04:00 +12°C° 0 mm 2 mps 731 mmHg 65%
    05:00 +12°C° 0 mm 2 mps 732 mmHg 64%
    06:00 +12°C° 0 mm 2 mps 732 mmHg 63%
    07:00 +12°C° 0 mm 2 mps 732 mmHg 62%
    08:00 +13°C° 0 mm 3 mps 732 mmHg 54%
    09:00 +15°C° 0 mm 5 mps 732 mmHg 47%
    10:00 +17°C° 0 mm 6 mps 732 mmHg 40%
    11:00 +17°C° 0 mm 6 mps 732 mmHg 39%
    12:00 +19°C° 0 mm 6 mps 731 mmHg 38%
    13:00 +19°C° 0 mm 6 mps 731 mmHg 37%
    14:00 +19°C° 0 mm 6 mps 731 mmHg 37%
    15:00 +19°C° 0 mm 6 mps 731 mmHg 37%
    16:00 +19°C° 0 mm 5 mps 730 mmHg 36%
    17:00 +16°C° 0 mm 5 mps 731 mmHg 38%
    18:00 +15°C° 0 mm 5 mps 731 mmHg 39%
    19:00 +14°C° 0 mm 5 mps 732 mmHg 41%
    20:00 +13°C° 0 mm 5 mps 732 mmHg 44%
    21:00 +12°C° 0 mm 5 mps 732 mmHg 47%
    22:00 +10°C° 0 mm 5 mps 733 mmHg 50%
    23:00 +9°C° 0 mm 5 mps 733 mmHg 52%
    Show more